| time (UTC) | temp C | wind direction | speed KPH | gust KPH | rain 1hr cm | rain 24hr cm | rain mn cm | humidity % | barometer mb |
| 20260906162503 | 27 | 54 | 1.6 | 11.3 | 0.00 | 0.08 | 0.00 | 73 | 1012.7 |
| 20260906162003 | 27 | 64 | 1.6 | 12.9 | 0.00 | 0.08 | 0.00 | 73 | 1012.7 |
| 20260906161503 | 27 | 59 | 3.2 | 16.1 | 0.00 | 0.08 | 0.00 | 73 | 1012.6 |
| 20260906161003 | 27 | 50 | 3.2 | 16.1 | 0.00 | 0.08 | 0.00 | 71 | 1012.7 |
| 20260906160503 | 28 | 52 | 1.6 | 9.7 | 0.00 | 0.08 | 0.00 | 74 | 1012.7 |
| 20260906160003 | 27 | 54 | 1.6 | 9.7 | 0.00 | 0.08 | 0.00 | 73 | 1012.8 |
| 20260906155503 | 27 | 10 | 1.6 | 6.4 | 0.00 | 0.08 | 0.00 | 76 | 1012.9 |
| 20260906155003 | 27 | 48 | 3.2 | 11.3 | 0.00 | 0.08 | 0.00 | 75 | 1012.9 |
| 20260906154503 | 27 | 49 | 3.2 | 11.3 | 0.00 | 0.08 | 0.00 | 76 | 1013.0 |
| 20260906154003 | 27 | 39 | 1.6 | 9.7 | 0.00 | 0.08 | 0.00 | 75 | 1013.1 |
| 20260906153503 | 27 | 33 | 1.6 | 9.7 | 0.00 | 0.08 | 0.00 | 77 | 1013.2 |
| 20260906153003 | 26 | 43 | 3.2 | 11.3 | 0.00 | 0.08 | 0.00 | 80 | 1013.1 |
| 20260906152503 | 26 | 62 | 1.6 | 11.3 | 0.00 | 0.08 | 0.00 | 79 | 1013.0 |
| 20260906152003 | 26 | 59 | 3.2 | 9.7 | 0.00 | 0.08 | 0.00 | 81 | 1013.1 |
| 20260906151504 | 26 | 57 | 3.2 | 11.3 | 0.00 | 0.08 | 0.00 | 80 | 1013.1 |
| 20260906151003 | 26 | 57 | 1.6 | 11.3 | 0.00 | 0.08 | 0.00 | 80 | 1013.1 |
| 20260906150503 | 26 | 39 | 1.6 | 8.0 | 0.00 | 0.08 | 0.00 | 81 | 1013.1 |
| 20260906150003 | 26 | 27 | 3.2 | 11.3 | 0.00 | 0.08 | 0.00 | 81 | 1013.0 |
| 20260906145503 | 26 | 41 | 4.8 | 11.3 | 0.00 | 0.08 | 0.00 | 82 | 1012.9 |
| 20260906145003 | 25 | 53 | 3.2 | 11.3 | 0.00 | 0.08 | 0.00 | 81 | 1012.9 |
| 20260906144503 | 26 | 57 | 1.6 | 11.3 | 0.00 | 0.08 | 0.00 | 82 | 1012.8 |
| 20260906144003 | 25 | 34 | 1.6 | 9.7 | 0.00 | 0.08 | 0.00 | 82 | 1012.7 |
| 20260906143503 | 25 | 29 | 1.6 | 11.3 | 0.00 | 0.08 | 0.00 | 81 | 1012.7 |
| 20260906143003 | 25 | 22 | 1.6 | 11.3 | 0.00 | 0.08 | 0.00 | 83 | 1012.8 |
| 20260906142503 | 25 | 31 | 0.0 | 4.8 | 0.00 | 0.08 | 0.00 | 84 | 1012.7 |
| 20260906142003 | 25 | 49 | 1.6 | 11.3 | 0.00 | 0.08 | 0.00 | 84 | 1012.8 |
| 20260906141503 | 25 | 40 | 3.2 | 11.3 | 0.00 | 0.08 | 0.00 | 84 | 1012.7 |
| 20260906141003 | 25 | 52 | 3.2 | 8.0 | 0.00 | 0.08 | 0.00 | 84 | 1012.6 |
| 20260906140503 | 25 | 65 | 1.6 | 8.0 | 0.00 | 0.08 | 0.00 | 83 | 1012.7 |
| 20260906140003 | 25 | 61 | 1.6 | 8.0 | 0.00 | 0.08 | 0.00 | 85 | 1012.6 |
| 20260906135503 | 25 | 65 | 1.6 | 8.0 | 0.00 | 0.08 | 0.00 | 87 | 1012.6 |
| 20260906135003 | 24 | 60 | 1.6 | 6.4 | 0.00 | 0.08 | 0.00 | 86 | 1012.6 |
| 20260906134503 | 24 | 51 | 0.0 | 6.4 | 0.00 | 0.08 | 0.00 | 86 | 1012.6 |
| 20260906134003 | 24 | 29 | 1.6 | 6.4 | 0.00 | 0.08 | 0.00 | 86 | 1012.6 |
| 20260906133503 | 24 | 38 | 4.8 | 9.7 | 0.00 | 0.08 | 0.00 | 86 | 1012.6 |
| 20260906133003 | 24 | 47 | 3.2 | 9.7 | 0.00 | 0.08 | 0.00 | 86 | 1012.5 |
| 20260906132504 | 24 | 55 | 3.2 | 8.0 | 0.00 | 0.08 | 0.00 | 87 | 1012.5 |
| 20260906132003 | 23 | 59 | 3.2 | 9.7 | 0.00 | 0.08 | 0.00 | 86 | 1012.5 |
| 20260906131503 | 23 | 62 | 1.6 | 9.7 | 0.00 | 0.08 | 0.00 | 87 | 1012.6 |
| 20260906131003 | 23 | 30 | 3.2 | 12.9 | 0.00 | 0.08 | 0.00 | 87 | 1012.4 |
| 20260906130503 | 23 | 47 | 4.8 | 14.5 | 0.00 | 0.08 | 0.00 | 87 | 1012.4 |
| 20260906130003 | 23 | 61 | 4.8 | 14.5 | 0.00 | 0.08 | 0.00 | 87 | 1012.4 |
| 20260906125503 | 23 | 47 | 3.2 | 11.3 | 0.00 | 0.08 | 0.00 | 89 | 1012.4 |
| 20260906125003 | 23 | 32 | 4.8 | 11.3 | 0.00 | 0.08 | 0.00 | 89 | 1012.3 |
| 20260906124503 | 23 | 33 | 3.2 | 11.3 | 0.00 | 0.08 | 0.00 | 90 | 1012.3 |
| 20260906124003 | 23 | 45 | 1.6 | 11.3 | 0.00 | 0.08 | 0.00 | 91 | 1012.3 |
| 20260906123503 | 23 | 56 | 1.6 | 8.0 | 0.00 | 0.08 | 0.00 | 91 | 1012.4 |
| 20260906123003 | 23 | 60 | 1.6 | 6.4 | 0.00 | 0.08 | 0.00 | 91 | 1012.3 |
| 20260906122503 | 23 | 55 | 3.2 | 8.0 | 0.00 | 0.08 | 0.00 | 92 | 1012.3 |
| 20260906122003 | 23 | 48 | 3.2 | 11.3 | 0.00 | 0.08 | 0.00 | 92 | 1012.3 |
| 20260906121503 | 23 | 49 | 1.6 | 11.3 | 0.00 | 0.08 | 0.00 | 92 | 1012.3 |
| 20260906121003 | 23 | 67 | 1.6 | 6.4 | 0.00 | 0.08 | 0.00 | 93 | 1012.3 |
| 20260906120503 | 22 | 70 | 1.6 | 8.0 | 0.00 | 0.08 | 0.00 | 93 | 1012.3 |
| 20260906120004 | 22 | 56 | 1.6 | 8.0 | 0.00 | 0.08 | 0.00 | 94 | 1012.3 |
| 20260906115503 | 22 | 50 | 1.6 | 8.0 | 0.00 | 0.08 | 0.00 | 94 | 1012.2 |
| 20260906115003 | 22 | 65 | 1.6 | 4.8 | 0.00 | 0.08 | 0.00 | 94 | 1012.2 |
| 20260906114503 | 22 | 64 | 1.6 | 4.8 | 0.00 | 0.08 | 0.00 | 94 | 1012.1 |
| 20260906114003 | 22 | 57 | 1.6 | 4.8 | 0.00 | 0.08 | 0.00 | 94 | 1012.0 |
| 20260906113503 | 22 | 59 | 0.0 | 4.8 | 0.00 | 0.08 | 0.00 | 94 | 1011.9 |
| 20260906113003 | 22 | 55 | 0.0 | 4.8 | 0.00 | 0.08 | 0.00 | 94 | 1011.9 |
| 20260906112503 | 22 | 54 | 0.0 | 6.4 | 0.00 | 0.08 | 0.00 | 94 | 1011.9 |
| 20260906112003 | 22 | 64 | 0.0 | 6.4 | 0.00 | 0.08 | 0.00 | 94 | 1011.8 |
| 20260906111503 | 22 | 65 | 1.6 | 6.4 | 0.00 | 0.08 | 0.00 | 94 | 1011.6 |
| 20260906111003 | 22 | 63 | 3.2 | 8.0 | 0.00 | 0.08 | 0.00 | 94 | 1011.5 |
| 20260906110503 | 22 | 72 | 3.2 | 8.0 | 0.00 | 0.08 | 0.00 | 94 | 1011.4 |
| 20260906110003 | 22 | 65 | 1.6 | 8.0 | 0.00 | 0.08 | 0.00 | 94 | 1011.4 |
| 20260906105503 | 22 | 43 | 1.6 | 8.0 | 0.00 | 0.08 | 0.00 | 94 | 1011.4 |
| 20260906105003 | 22 | 57 | 1.6 | 8.0 | 0.00 | 0.08 | 0.00 | 94 | 1011.2 |
| 20260906104503 | 22 | 76 | 3.2 | 9.7 | 0.00 | 0.08 | 0.00 | 94 | 1011.2 |
| 20260906104003 | 22 | 67 | 1.6 | 9.7 | 0.00 | 0.08 | 0.00 | 94 | 1011.2 |
| 20260906103503 | 22 | 48 | 1.6 | 9.7 | 0.00 | 0.08 | 0.00 | 94 | 1011.2 |
| 20260906103003 | 22 | 64 | 0.0 | 8.0 | 0.00 | 0.08 | 0.00 | 95 | 1011.2 |
| 20260906102503 | 22 | 55 | 0.0 | 4.8 | 0.00 | 0.08 | 0.00 | 95 | 1011.2 |
| 20260906102003 | 22 | 34 | 0.0 | 4.8 | 0.00 | 0.08 | 0.00 | 95 | 1011.2 |
| 20260906101503 | 22 | 64 | 1.6 | 4.8 | 0.00 | 0.08 | 0.00 | 95 | 1011.1 |
| 20260906101003 | 22 | 68 | 1.6 | 4.8 | 0.00 | 0.08 | 0.00 | 95 | 1011.1 |
| 20260906100503 | 22 | 46 | 0.0 | 4.8 | 0.00 | 0.08 | 0.00 | 95 | 1011.0 |
| 20260906100003 | 22 | 21 | 0.0 | 3.2 | 0.00 | 0.08 | 0.00 | 95 | 1010.9 |
| 20260906095503 | 22 | 48 | 0.0 | 4.8 | 0.00 | 0.08 | 0.00 | 96 | 1010.8 |
| 20260906095003 | 22 | 74 | 0.0 | 4.8 | 0.00 | 0.08 | 0.00 | 96 | 1010.7 |
| 20260906094504 | 22 | 71 | 0.0 | 3.2 | 0.00 | 0.08 | 0.00 | 96 | 1010.7 |
| 20260906094003 | 22 | 49 | 0.0 | 3.2 | 0.00 | 0.08 | 0.00 | 96 | 1010.6 |
| 20260906093503 | 22 | 46 | 0.0 | 4.8 | 0.00 | 0.08 | 0.00 | 96 | 1010.4 |
| 20260906093003 | 22 | 62 | 0.0 | 4.8 | 0.00 | 0.08 | 0.00 | 96 | 1010.4 |
| 20260906092503 | 22 | 68 | 0.0 | 4.8 | 0.00 | 0.08 | 0.00 | 96 | 1010.5 |
| 20260906092003 | 22 | 67 | 0.0 | 4.8 | 0.00 | 0.08 | 0.00 | 96 | 1010.5 |
| 20260906091503 | 22 | 0 | 0.0 | 0.0 | 0.00 | 0.08 | 0.00 | 96 | 1010.3 |
| 20260906091003 | 22 | 0 | 0.0 | 0.0 | 0.00 | 0.08 | 0.00 | 96 | 1010.3 |
| 20260906090503 | 22 | 67 | 0.0 | 1.6 | 0.00 | 0.08 | 0.00 | 96 | 1010.3 |
| 20260906090003 | 22 | 67 | 0.0 | 1.6 | 0.00 | 0.08 | 0.00 | 96 | 1010.3 |
| 20260906085503 | 22 | 67 | 0.0 | 1.6 | 0.00 | 0.08 | 0.00 | 96 | 1010.3 |
| 20260906085003 | 22 | 0 | 0.0 | 0.0 | 0.00 | 0.08 | 0.00 | 96 | 1010.3 |
| 20260906084503 | 22 | 0 | 0.0 | 0.0 | 0.00 | 0.08 | 0.00 | 96 | 1010.2 |
| 20260906084003 | 22 | 0 | 0.0 | 0.0 | 0.00 | 0.08 | 0.00 | 96 | 1010.2 |
| 20260906083503 | 22 | 0 | 0.0 | 0.0 | 0.00 | 0.08 | 0.00 | 96 | 1010.2 |
| 20260906083003 | 22 | 0 | 0.0 | 0.0 | 0.00 | 0.08 | 0.00 | 96 | 1010.2 |
| 20260906082503 | 21 | 0 | 0.0 | 0.0 | 0.00 | 0.08 | 0.00 | 96 | 1010.2 |
| 20260906082003 | 21 | 15 | 0.0 | 1.6 | 0.00 | 0.08 | 0.00 | 96 | 1010.2 |
| 20260906081503 | 21 | 15 | 0.0 | 1.6 | 0.00 | 0.08 | 0.00 | 96 | 1010.1 |
| 20260906081003 | 21 | 0 | 0.0 | 0.0 | 0.00 | 0.08 | 0.00 | 96 | 1010.0 |
| 20260906080503 | 21 | 0 | 0.0 | 0.0 | 0.00 | 0.08 | 0.00 | 96 | 1009.9 |
| 20260906080003 | 21 | 0 | 0.0 | 0.0 | 0.00 | 0.08 | 0.00 | 96 | 1009.7 |
| 20260906075503 | 21 | 0 | 0.0 | 0.0 | 0.00 | 0.08 | 0.00 | 96 | 1009.7 |
| 20260906075004 | 21 | 0 | 0.0 | 0.0 | 0.00 | 0.08 | 0.00 | 96 | 1009.7 |
| 20260906074503 | 21 | 0 | 0.0 | 0.0 | 0.00 | 0.08 | 0.00 | 96 | 1009.7 |
| 20260906074003 | 21 | 0 | 0.0 | 0.0 | 0.00 | 0.08 | 0.00 | 96 | 1009.6 |
| 20260906073503 | 21 | 0 | 0.0 | 0.0 | 0.00 | 0.08 | 0.00 | 96 | 1009.5 |
| 20260906073003 | 21 | 0 | 0.0 | 0.0 | 0.00 | 0.08 | 0.00 | 96 | 1009.6 |
| 20260906072503 | 21 | 0 | 0.0 | 0.0 | 0.00 | 0.08 | 0.00 | 95 | 1009.6 |
| 20260906072003 | 21 | 0 | 0.0 | 0.0 | 0.00 | 0.08 | 0.00 | 95 | 1009.6 |
| 20260906071503 | 21 | 0 | 0.0 | 0.0 | 0.00 | 0.08 | 0.00 | 96 | 1009.6 |
| 20260906071003 | 21 | 0 | 0.0 | 0.0 | 0.00 | 0.08 | 0.00 | 96 | 1009.7 |
| 20260906070503 | 21 | 0 | 0.0 | 0.0 | 0.00 | 0.08 | 0.00 | 96 | 1009.6 |
| 20260906070003 | 21 | 0 | 0.0 | 0.0 | 0.00 | 0.08 | 0.00 | 96 | 1009.6 |
| 20260906065503 | 21 | 0 | 0.0 | 0.0 | 0.00 | 0.08 | 0.00 | 95 | 1009.6 |
| 20260906065003 | 21 | 0 | 0.0 | 0.0 | 0.00 | 0.08 | 0.00 | 95 | 1009.6 |
| 20260906064503 | 21 | 0 | 0.0 | 0.0 | 0.00 | 0.08 | 0.00 | 95 | 1009.7 |
| 20260906064003 | 21 | 0 | 0.0 | 0.0 | 0.00 | 0.08 | 0.00 | 95 | 1009.8 |
| 20260906063503 | 21 | 0 | 0.0 | 0.0 | 0.00 | 0.08 | 0.00 | 95 | 1009.9 |
| 20260906063003 | 21 | 0 | 0.0 | 0.0 | 0.00 | 0.08 | 0.00 | 95 | 1010.0 |
| 20260906062503 | 21 | 0 | 0.0 | 0.0 | 0.00 | 0.08 | 0.00 | 95 | 1009.9 |
| 20260906062003 | 22 | 0 | 0.0 | 0.0 | 0.00 | 0.08 | 0.00 | 95 | 1010.0 |
| 20260906061503 | 22 | 0 | 0.0 | 0.0 | 0.00 | 0.08 | 0.00 | 95 | 1009.9 |
| 20260906061003 | 22 | 0 | 0.0 | 0.0 | 0.00 | 0.08 | 0.00 | 95 | 1010.0 |
| 20260906060503 | 22 | 0 | 0.0 | 0.0 | 0.00 | 0.08 | 0.00 | 95 | 1010.0 |
| 20260906060003 | 22 | 0 | 0.0 | 0.0 | 0.00 | 0.08 | 0.00 | 95 | 1010.1 |
| 20260906055503 | 22 | 0 | 0.0 | 0.0 | 0.00 | 0.08 | 0.00 | 95 | 1010.1 |
| 20260906055003 | 22 | 0 | 0.0 | 0.0 | 0.00 | 0.08 | 0.00 | 95 | 1010.2 |
| 20260906054503 | 22 | 0 | 0.0 | 0.0 | 0.00 | 0.08 | 0.00 | 95 | 1010.3 |
| 20260906054003 | 22 | 0 | 0.0 | 0.0 | 0.00 | 0.08 | 0.00 | 95 | 1010.3 |
| 20260906053503 | 22 | 0 | 0.0 | 0.0 | 0.00 | 0.08 | 0.00 | 95 | 1010.4 |
| 20260906053003 | 22 | 0 | 0.0 | 0.0 | 0.00 | 0.08 | 0.00 | 95 | 1010.4 |
| 20260906052503 | 22 | 0 | 0.0 | 0.0 | 0.00 | 0.08 | 0.00 | 95 | 1010.5 |
| 20260906052003 | 22 | 0 | 0.0 | 0.0 | 0.00 | 0.08 | 0.00 | 95 | 1010.5 |
| 20260906051503 | 22 | 0 | 0.0 | 0.0 | 0.00 | 0.08 | 0.00 | 95 | 1010.6 |
| 20260906051003 | 22 | 0 | 0.0 | 0.0 | 0.00 | 0.08 | 0.00 | 95 | 1010.7 |
| 20260906050503 | 22 | 0 | 0.0 | 0.0 | 0.00 | 0.08 | 0.00 | 95 | 1010.7 |
| 20260906050003 | 22 | 0 | 0.0 | 0.0 | 0.00 | 0.08 | 0.00 | 95 | 1010.6 |
| 20260906045503 | 22 | 0 | 0.0 | 0.0 | 0.00 | 0.08 | 0.00 | 95 | 1010.6 |
| 20260906045003 | 22 | 0 | 0.0 | 0.0 | 0.00 | 0.08 | 0.00 | 95 | 1010.6 |
| 20260906044503 | 22 | 0 | 0.0 | 0.0 | 0.00 | 0.08 | 0.00 | 95 | 1010.8 |
| 20260906044003 | 22 | 244 | 0.0 | 1.6 | 0.00 | 0.08 | 0.00 | 95 | 1010.9 |
| 20260906043503 | 22 | 244 | 0.0 | 1.6 | 0.00 | 0.08 | 0.00 | 95 | 1010.9 |
| 20260906043003 | 22 | 0 | 0.0 | 0.0 | 0.00 | 0.08 | 0.00 | 95 | 1010.9 |
| 20260906042503 | 22 | 0 | 0.0 | 0.0 | 0.00 | 0.08 | 0.00 | 95 | 1010.9 |
| 20260906042003 | 22 | 0 | 0.0 | 0.0 | 0.00 | 0.08 | 0.00 | 94 | 1010.9 |
| 20260906041503 | 22 | 0 | 0.0 | 0.0 | 0.00 | 0.08 | 0.00 | 94 | 1010.9 |
| 20260906041003 | 22 | 0 | 0.0 | 0.0 | 0.00 | 0.08 | 0.00 | 94 | 1010.9 |
| 20260906040503 | 22 | 0 | 0.0 | 0.0 | 0.00 | 0.08 | 0.00 | 94 | 1010.9 |
| 20260906040004 | 22 | 0 | 0.0 | 0.0 | 0.00 | 0.08 | 0.00 | 94 | 1011.0 |
| 20260906035503 | 22 | 0 | 0.0 | 0.0 | 0.00 | 0.08 | 0.08 | 94 | 1011.0 |
| 20260906035003 | 23 | 0 | 0.0 | 0.0 | 0.00 | 0.08 | 0.08 | 94 | 1011.1 |
| 20260906034503 | 23 | 0 | 0.0 | 0.0 | 0.00 | 0.08 | 0.08 | 94 | 1011.2 |
| 20260906034003 | 23 | 0 | 0.0 | 0.0 | 0.00 | 0.08 | 0.08 | 94 | 1011.0 |
| 20260906033503 | 23 | 0 | 0.0 | 0.0 | 0.00 | 0.08 | 0.08 | 94 | 1011.1 |
| 20260906033003 | 23 | 0 | 0.0 | 0.0 | 0.00 | 0.08 | 0.08 | 94 | 1011.1 |
| 20260906032503 | 23 | 0 | 0.0 | 0.0 | 0.00 | 0.08 | 0.08 | 94 | 1011.1 |
| 20260906032003 | 23 | 0 | 0.0 | 0.0 | 0.00 | 0.08 | 0.08 | 94 | 1011.1 |
| 20260906031503 | 23 | 0 | 0.0 | 0.0 | 0.00 | 0.08 | 0.08 | 94 | 1011.0 |
| 20260906031003 | 23 | 0 | 0.0 | 0.0 | 0.00 | 0.08 | 0.08 | 93 | 1010.9 |
| 20260906030503 | 23 | 0 | 0.0 | 0.0 | 0.00 | 0.08 | 0.08 | 93 | 1010.9 |
| 20260906030003 | 23 | 0 | 0.0 | 0.0 | 0.00 | 0.08 | 0.08 | 93 | 1010.8 |
| 20260906025503 | 23 | 0 | 0.0 | 0.0 | 0.00 | 0.08 | 0.08 | 93 | 1010.9 |
| 20260906025003 | 23 | 0 | 0.0 | 0.0 | 0.00 | 0.08 | 0.08 | 93 | 1010.8 |
| 20260906024503 | 23 | 0 | 0.0 | 0.0 | 0.00 | 0.08 | 0.08 | 92 | 1010.8 |
| 20260906024003 | 23 | 0 | 0.0 | 0.0 | 0.00 | 0.08 | 0.08 | 92 | 1010.9 |
| 20260906023503 | 23 | 0 | 0.0 | 0.0 | 0.00 | 0.08 | 0.08 | 92 | 1010.9 |
| 20260906023003 | 23 | 0 | 0.0 | 0.0 | 0.00 | 0.08 | 0.08 | 92 | 1010.9 |
| 20260906022503 | 23 | 0 | 0.0 | 0.0 | 0.00 | 0.08 | 0.08 | 92 | 1011.0 |
| 20260906022003 | 23 | 87 | 0.0 | 3.2 | 0.00 | 0.08 | 0.08 | 92 | 1010.8 |
| 20260906021503 | 23 | 87 | 0.0 | 3.2 | 0.00 | 0.08 | 0.08 | 93 | 1010.9 |
| 20260906021003 | 23 | 0 | 0.0 | 0.0 | 0.00 | 0.08 | 0.08 | 93 | 1010.7 |
| 20260906020503 | 23 | 0 | 0.0 | 0.0 | 0.00 | 0.08 | 0.08 | 93 | 1010.6 |
| 20260906020003 | 23 | 0 | 0.0 | 0.0 | 0.00 | 0.08 | 0.08 | 93 | 1010.6 |
| 20260906015503 | 23 | 0 | 0.0 | 0.0 | 0.00 | 0.08 | 0.08 | 94 | 1010.6 |
| 20260906015004 | 23 | 0 | 0.0 | 0.0 | 0.00 | 0.08 | 0.08 | 94 | 1010.7 |
| 20260906014503 | 23 | 0 | 0.0 | 0.0 | 0.00 | 0.08 | 0.08 | 94 | 1010.6 |
| 20260906014003 | 23 | 0 | 0.0 | 0.0 | 0.00 | 0.08 | 0.08 | 93 | 1010.5 |
| 20260906013503 | 23 | 0 | 0.0 | 0.0 | 0.00 | 0.08 | 0.08 | 93 | 1010.5 |
| 20260906013003 | 23 | 0 | 0.0 | 0.0 | 0.00 | 0.08 | 0.08 | 94 | 1010.5 |
| 20260906012503 | 23 | 0 | 0.0 | 0.0 | 0.00 | 0.08 | 0.08 | 93 | 1010.5 |
| 20260906012003 | 23 | 0 | 0.0 | 0.0 | 0.00 | 0.08 | 0.08 | 93 | 1010.4 |
| 20260906011503 | 23 | 0 | 0.0 | 0.0 | 0.00 | 0.08 | 0.08 | 93 | 1010.4 |
| 20260906011003 | 23 | 0 | 0.0 | 0.0 | 0.00 | 0.08 | 0.08 | 93 | 1010.4 |
| 20260906010503 | 23 | 0 | 0.0 | 0.0 | 0.00 | 0.08 | 0.08 | 93 | 1010.4 |
| 20260906010003 | 23 | 0 | 0.0 | 0.0 | 0.00 | 0.08 | 0.08 | 93 | 1010.4 |
| 20260906005503 | 23 | 0 | 0.0 | 0.0 | 0.00 | 0.08 | 0.08 | 93 | 1010.4 |
| 20260906005003 | 23 | 0 | 0.0 | 0.0 | 0.00 | 0.08 | 0.08 | 93 | 1010.3 |
| 20260906004503 | 23 | 0 | 0.0 | 0.0 | 0.00 | 0.08 | 0.08 | 92 | 1010.3 |
| 20260906004003 | 23 | 0 | 0.0 | 0.0 | 0.00 | 0.08 | 0.08 | 93 | 1010.3 |
| 20260906003503 | 23 | 0 | 0.0 | 0.0 | 0.00 | 0.08 | 0.08 | 92 | 1010.3 |
| 20260906003003 | 24 | 0 | 0.0 | 0.0 | 0.00 | 0.08 | 0.08 | 92 | 1010.2 |
| 20260906002503 | 24 | 0 | 0.0 | 0.0 | 0.00 | 0.08 | 0.08 | 92 | 1010.2 |
| 20260906002003 | 24 | 0 | 0.0 | 0.0 | 0.00 | 0.08 | 0.08 | 91 | 1010.1 |
| 20260906001503 | 24 | 0 | 0.0 | 0.0 | 0.00 | 0.08 | 0.08 | 91 | 1010.1 |
| 20260906001003 | 24 | 0 | 0.0 | 0.0 | 0.00 | 0.08 | 0.08 | 91 | 1010.0 |
| 20260906000503 | 24 | 0 | 0.0 | 0.0 | 0.00 | 0.08 | 0.08 | 91 | 1010.0 |
| 20260906000003 | 24 | 0 | 0.0 | 0.0 | 0.00 | 0.08 | 0.08 | 91 | 1009.7 |
| 20260905235503 | 24 | 0 | 0.0 | 0.0 | 0.00 | 0.08 | 0.08 | 90 | 1009.7 |
| 20260905235003 | 24 | 0 | 0.0 | 0.0 | 0.00 | 0.08 | 0.08 | 90 | 1009.8 |
| 20260905234503 | 25 | 0 | 0.0 | 0.0 | 0.00 | 0.08 | 0.08 | 90 | 1009.7 |
| 20260905234003 | 25 | 0 | 0.0 | 0.0 | 0.00 | 0.08 | 0.08 | 89 | 1009.6 |
| 20260905233503 | 25 | 0 | 0.0 | 0.0 | 0.00 | 0.08 | 0.08 | 89 | 1009.5 |
| 20260905233003 | 25 | 0 | 0.0 | 0.0 | 0.00 | 0.08 | 0.08 | 89 | 1009.4 |
| 20260905232503 | 25 | 0 | 0.0 | 0.0 | 0.00 | 0.08 | 0.08 | 89 | 1009.2 |
| 20260905232003 | 25 | 0 | 0.0 | 0.0 | 0.00 | 0.08 | 0.08 | 89 | 1009.2 |
| 20260905231503 | 25 | 0 | 0.0 | 0.0 | 0.00 | 0.08 | 0.08 | 89 | 1009.2 |
| 20260905231003 | 25 | 0 | 0.0 | 0.0 | 0.00 | 0.08 | 0.08 | 88 | 1009.1 |
| 20260905230503 | 25 | 0 | 0.0 | 0.0 | 0.00 | 0.08 | 0.08 | 88 | 1008.9 |
| 20260905230003 | 25 | 0 | 0.0 | 0.0 | 0.00 | 0.08 | 0.08 | 88 | 1008.6 |
| 20260905225503 | 25 | 0 | 0.0 | 0.0 | 0.00 | 0.08 | 0.08 | 89 | 1008.6 |
| 20260905225003 | 25 | 0 | 0.0 | 0.0 | 0.00 | 0.08 | 0.08 | 88 | 1008.6 |
| 20260905224503 | 25 | 0 | 0.0 | 0.0 | 0.00 | 0.08 | 0.08 | 89 | 1008.2 |
| 20260905224003 | 25 | 0 | 0.0 | 0.0 | 0.00 | 0.08 | 0.08 | 89 | 1008.3 |
| 20260905223503 | 25 | 0 | 0.0 | 0.0 | 0.00 | 0.08 | 0.08 | 90 | 1008.4 |
| 20260905223003 | 25 | 0 | 0.0 | 0.0 | 0.00 | 0.08 | 0.08 | 90 | 1008.5 |
| 20260905222503 | 24 | 0 | 0.0 | 0.0 | 0.00 | 0.08 | 0.08 | 91 | 1008.8 |
| 20260905222003 | 24 | 0 | 0.0 | 0.0 | 0.00 | 0.08 | 0.08 | 91 | 1008.9 |
| 20260905221503 | 24 | 0 | 0.0 | 0.0 | 0.00 | 0.08 | 0.08 | 91 | 1009.0 |
| 20260905221003 | 24 | 0 | 0.0 | 0.0 | 0.03 | 0.08 | 0.08 | 90 | 1009.3 |
| 20260905220503 | 24 | 0 | 0.0 | 0.0 | 0.03 | 0.08 | 0.08 | 91 | 1009.3 |
| 20260905220003 | 24 | 0 | 0.0 | 0.0 | 0.03 | 0.08 | 0.08 | 91 | 1009.3 |
| 20260905215503 | 24 | 0 | 0.0 | 0.0 | 0.05 | 0.08 | 0.08 | 91 | 1009.2 |
| 20260905215003 | 24 | 0 | 0.0 | 0.0 | 0.08 | 0.08 | 0.08 | 91 | 1009.2 |
| 20260905214503 | 23 | 0 | 0.0 | 0.0 | 0.08 | 0.08 | 0.08 | 90 | 1009.1 |
| 20260905214003 | 24 | 238 | 0.0 | 1.6 | 0.08 | 0.08 | 0.08 | 90 | 1009.2 |
| 20260905213503 | 24 | 238 | 0.0 | 1.6 | 0.08 | 0.08 | 0.08 | 90 | 1009.0 |
| 20260905213003 | 24 | 0 | 0.0 | 0.0 | 0.08 | 0.08 | 0.08 | 90 | 1008.8 |
| 20260905212503 | 24 | 0 | 0.0 | 0.0 | 0.08 | 0.08 | 0.08 | 88 | 1008.7 |
| 20260905212003 | 24 | 0 | 0.0 | 0.0 | 0.08 | 0.08 | 0.08 | 87 | 1008.7 |
| 20260905211503 | 24 | 0 | 0.0 | 0.0 | 0.08 | 0.08 | 0.08 | 87 | 1008.8 |
| 20260905211003 | 25 | 0 | 0.0 | 0.0 | 0.05 | 0.05 | 0.05 | 85 | 1008.8 |
| 20260905210503 | 25 | 0 | 0.0 | 0.0 | 0.05 | 0.05 | 0.05 | 84 | 1008.9 |
| 20260905210003 | 25 | 50 | 0.0 | 4.8 | 0.05 | 0.05 | 0.05 | 82 | 1008.9 |
| 20260905205503 | 26 | 62 | 0.0 | 4.8 | 0.03 | 0.03 | 0.03 | 79 | 1009.0 |
| 20260905205003 | 26 | 66 | 0.0 | 4.8 | 0.00 | 0.00 | 0.00 | 76 | 1008.8 |
| 20260905204503 | 26 | 52 | 1.6 | 6.4 | 0.00 | 0.00 | 0.00 | 73 | 1008.8 |
| 20260905204003 | 27 | 57 | 1.6 | 6.4 | 0.00 | 0.00 | 0.00 | 73 | 1008.9 |
| 20260905203503 | 27 | 61 | 3.2 | 9.7 | 0.00 | 0.00 | 0.00 | 72 | 1008.9 |
| 20260905203003 | 27 | 61 | 1.6 | 9.7 | 0.00 | 0.00 | 0.00 | 71 | 1009.0 |
| 20260905202503 | 27 | 66 | 1.6 | 9.7 | 0.00 | 0.00 | 0.00 | 70 | 1008.8 |
| 20260905202003 | 27 | 75 | 3.2 | 12.9 | 0.00 | 0.00 | 0.00 | 69 | 1008.4 |
| 20260905201503 | 27 | 63 | 4.8 | 16.1 | 0.00 | 0.00 | 0.00 | 68 | 1008.6 |
| 20260905201003 | 28 | 52 | 6.4 | 20.9 | 0.00 | 0.00 | 0.00 | 67 | 1008.8 |
| 20260905200503 | 28 | 49 | 6.4 | 20.9 | 0.00 | 0.00 | 0.00 | 66 | 1009.1 |
| 20260905200003 | 28 | 37 | 3.2 | 16.1 | 0.00 | 0.00 | 0.00 | 64 | 1009.0 |
| 20260905195503 | 29 | 70 | 6.4 | 24.1 | 0.00 | 0.00 | 0.00 | 64 | 1008.9 |
| 20260905195004 | 30 | 62 | 11.3 | 29.0 | 0.00 | 0.00 | 0.00 | 63 | 1009.1 |
| 20260905194503 | 31 | 41 | 8.0 | 29.0 | 0.00 | 0.00 | 0.00 | 58 | 1009.1 |
| 20260905194003 | 33 | 39 | 3.2 | 24.1 | 0.00 | 0.00 | 0.00 | 52 | 1008.9 |
| 20260905193503 | 34 | 30 | 0.0 | 8.0 | 0.00 | 0.00 | 0.00 | 50 | 1008.6 |
| 20260905193003 | 34 | 28 | 1.6 | 8.0 | 0.00 | 0.00 | 0.00 | 49 | 1008.4 |
| 20260905192503 | 35 | 30 | 1.6 | 4.8 | 0.00 | 0.00 | 0.00 | 48 | 1008.2 |
| 20260905192003 | 35 | 24 | 0.0 | 4.8 | 0.00 | 0.00 | 0.00 | 47 | 1008.1 |
| 20260905191503 | 35 | 28 | 1.6 | 9.7 | 0.00 | 0.00 | 0.00 | 48 | 1008.1 |
| 20260905191003 | 35 | 27 | 1.6 | 9.7 | 0.00 | 0.00 | 0.00 | 47 | 1008.1 |
| 20260905190503 | 35 | 355 | 0.0 | 1.6 | 0.00 | 0.00 | 0.00 | 46 | 1008.0 |
| 20260905190003 | 35 | 32 | 0.0 | 6.4 | 0.00 | 0.00 | 0.00 | 44 | 1008.0 |
| 20260905185503 | 36 | 41 | 1.6 | 9.7 | 0.00 | 0.00 | 0.00 | 46 | 1008.1 |
| 20260905185003 | 36 | 44 | 1.6 | 9.7 | 0.00 | 0.00 | 0.00 | 41 | 1008.1 |
| 20260905184503 | 37 | 206 | 0.0 | 6.4 | 0.00 | 0.00 | 0.00 | 39 | 1008.2 |
| 20260905184003 | 37 | 226 | 1.6 | 6.4 | 0.00 | 0.00 | 0.00 | 38 | 1008.2 |
| 20260905183503 | 37 | 235 | 0.0 | 4.8 | 0.00 | 0.00 | 0.00 | 39 | 1008.2 |
| 20260905183003 | 37 | 289 | 0.0 | 3.2 | 0.00 | 0.00 | 0.00 | 42 | 1008.3 |
| 20260905182503 | 37 | 47 | 0.0 | 3.2 | 0.00 | 0.00 | 0.00 | 43 | 1008.5 |
| 20260905182003 | 36 | 57 | 1.6 | 11.3 | 0.00 | 0.00 | 0.00 | 44 | 1008.6 |
| 20260905181503 | 36 | 56 | 1.6 | 11.3 | 0.00 | 0.00 | 0.00 | 42 | 1008.7 |
| 20260905181003 | 36 | 279 | 0.0 | 4.8 | 0.00 | 0.00 | 0.00 | 45 | 1008.8 |
| 20260905180503 | 36 | 280 | 1.6 | 4.8 | 0.00 | 0.00 | 0.00 | 46 | 1008.9 |
| 20260905180003 | 36 | 283 | 1.6 | 8.0 | 0.00 | 0.00 | 0.00 | 46 | 1009.1 |
| 20260905175503 | 35 | 13 | 1.6 | 8.0 | 0.00 | 0.00 | 0.00 | 46 | 1009.2 |
| 20260905175003 | 35 | 46 | 1.6 | 9.7 | 0.00 | 0.00 | 0.00 | 45 | 1009.4 |
| 20260905174503 | 36 | 33 | 1.6 | 9.7 | 0.00 | 0.00 | 0.00 | 45 | 1009.6 |
| 20260905174003 | 36 | 22 | 1.6 | 9.7 | 0.00 | 0.00 | 0.00 | 46 | 1009.7 |
| 20260905173503 | 36 | 43 | 0.0 | 4.8 | 0.00 | 0.00 | 0.00 | 48 | 1009.8 |
| 20260905173003 | 36 | 53 | 0.0 | 8.0 | 0.00 | 0.00 | 0.00 | 50 | 1009.9 |
| 20260905172503 | 36 | 40 | 1.6 | 9.7 | 0.00 | 0.00 | 0.00 | 50 | 1009.9 |
| 20260905172003 | 36 | 28 | 1.6 | 9.7 | 0.00 | 0.00 | 0.00 | 49 | 1010.0 |
| 20260905171503 | 35 | 358 | 1.6 | 8.0 | 0.00 | 0.00 | 0.00 | 49 | 1010.1 |
| 20260905171003 | 35 | 34 | 1.6 | 6.4 | 0.00 | 0.00 | 0.00 | 52 | 1010.2 |
| 20260905170503 | 35 | 49 | 0.0 | 6.4 | 0.00 | 0.00 | 0.00 | 49 | 1010.3 |
| 20260905170003 | 35 | 67 | 0.0 | 4.8 | 0.00 | 0.00 | 0.00 | 51 | 1010.4 |
| 20260905165503 | 35 | 261 | 0.0 | 4.8 | 0.00 | 0.00 | 0.00 | 55 | 1010.5 |
| 20260905165003 | 35 | 255 | 1.6 | 6.4 | 0.00 | 0.00 | 0.00 | 51 | 1010.5 |
| 20260905164503 | 34 | 31 | 1.6 | 8.0 | 0.00 | 0.00 | 0.00 | 53 | 1010.5 |
| 20260905164003 | 34 | 62 | 1.6 | 8.0 | 0.00 | 0.00 | 0.00 | 55 | 1010.5 |
| 20260905163503 | 34 | 49 | 1.6 | 8.0 | 0.00 | 0.00 | 0.00 | 54 | 1010.5 |
| 20260905163003 | 34 | 42 | 1.6 | 8.0 | 0.00 | 0.00 | 0.00 | 54 | 1010.6 |